Location: Bittelbronn
(48.4454°N, 8.5870°E)
Time: 05:30:31
(UTC+00:00)

Cosmos 724 - Pass Details

Date: 12 August 2024
Orbit: 862 x 932 km, 65.6° (Epoch: 07 September)

Event Time Altitude Azimuth Distance (km) Brightness Sun altitude
Rises 03:19:45 0° 182° (S) 3,443 7.0 -8.9°
Reaches altitude 10° 03:22:29 10° 173° (S) 2,503 6.4 -8.6°
Maximum altitude 03:27:28 31° 113° (ESE) 1,480 5.9 -7.9°
Drops below altitude 10° 03:32:27 10° 53° (NE) 2,509 8.5 -7.2°
Sets 03:35:11 0° 44° (NE) 3,452 9.3 -6.8°
